User: anonymous   Login
Location: Brno
(49.2000°N, 16.6330°E)
Time: 17:18:45
(UTC+02:00)
Language:

RESURS DK-1 - Orbit

View from above orbital plane
View from above orbital plane
View from above satellite
View from above satellite

Ground track
Ground track

The orbit data is extracted from the following two-line orbital elements,

1 29228U 06021A   15243.16034187  .00000079  00000-0  13561-4 0  9993
2 29228 069.9409 326.5162 0007830 268.2064 091.8228 15.01580935509600
Epoch (UTC): 31 August 2015 03:50:53
Eccentricity: 0.0007830
inclination: 69.9409°
perigee height: 556 km
apogee height: 567 km
right ascension of ascending node: 326.5162°
argument of perigee: 268.2064°
revolutions per day: 15.01580935
mean anomaly at epoch: 91.8228°
orbit number at epoch: 50960

The dashed part of the orbit path shows where the satellite is in the earth's shadow,  

DLR